This is the latest recevied weather packets stored in our database for station/object IU3OVK-13. If no packets are shown the sender has not sent any weather packets the latest 10 day(s).
| Time | Temp. | Humidity | Pressure | Rain* | Wind** | Luminosity | Snow |
|---|---|---|---|---|---|---|---|
| 1788614964 | 31.67° C | 99% | 1009.4 hPa | - | - | - | - |
| 1788614344 | 31.11° C | 99% | 1009.1 hPa | - | - | - | - |
| 1788613723 | 31.67° C | 99% | 1009.2 hPa | - | - | - | - |
| 1788613103 | 32.78° C | 99% | 1008.9 hPa | - | - | - | - |
| 1788612483 | 32.22° C | 99% | 1008.9 hPa | - | - | - | - |
| 1788611243 | 32.78° C | 99% | 1009.8 hPa | - | - | - | - |
| 1788610622 | 33.33° C | 99% | 1008.1 hPa | - | - | - | - |
| 1788610002 | 31.11° C | 99% | 1010.4 hPa | - | - | - | - |
| 1788609382 | 33.33° C | 99% | 1009.8 hPa | - | - | - | - |
| 1788608762 | 35.56° C | 99% | 1007.3 hPa | - | - | - | - |
| 1788608141 | 33.89° C | 99% | 1009.5 hPa | - | - | - | - |
| 1788607521 | 34.44° C | 96% | 1008.8 hPa | - | - | - | - |
| 1788606281 | 40° C | 79% | 990.5 hPa | - | - | - | - |
| 1788605661 | 40° C | 79% | 989.8 hPa | - | - | - | - |
| 1788604418 | 38.33° C | 88% | 1007.5 hPa | - | - | - | - |
| 1788603798 | 38.33° C | 88% | 1007.5 hPa | - | - | - | - |
| 1788603176 | 45° C | 78% | 988.7 hPa | - | - | - | - |
| 1788602556 | 40.56° C | 80% | 995.1 hPa | - | - | - | - |
| 1788601936 | 42.78° C | 80% | 991 hPa | - | - | - | - |
| 1788601316 | 42.78° C | 80% | 991 hPa | - | - | - | - |
| 1788600693 | 34.44° C | 99% | 1010.5 hPa | - | - | - | - |
| 1788600074 | 35° C | 99% | 1008.5 hPa | - | - | - | - |
| 1788599453 | 30° C | 99% | 1011 hPa | - | - | - | - |
| 1788598833 | 31.11° C | 99% | 1010.2 hPa | - | - | - | - |
| 1788597592 | 28.33° C | 99% | 1011.4 hPa | - | - | - | - |
* Rain since midnight (hover to see other rain measurements)
** Current wind speed in m/s (hover to see current wind gust speed)